This is the latest recevied weather packets stored in our database for station/object HS5NMF. If no packets are shown the sender has not sent any weather packets the latest 1 day(s).
| Time | Temp. | Humidity | Pressure | Rain* | Wind** | Luminosity | Snow |
|---|---|---|---|---|---|---|---|
| 1777984141 | 29.44° C | 72% | 977 hPa | - | 0 m/s | 0 W/m² | - |
| 1777983820 | 29.44° C | 75% | 977 hPa | - | 0 m/s | 0 W/m² | - |
| 1777983493 | 29.44° C | 74% | 977 hPa | - | 0 m/s | 0 W/m² | - |
| 1777983170 | 29.44° C | 74% | 977 hPa | - | 0 m/s | 0 W/m² | - |
| 1777982849 | 29.44° C | 73% | 977 hPa | - | 0 m/s | 0 W/m² | - |
| 1777982523 | 29.44° C | 73% | 977 hPa | - | 0 m/s | 0 W/m² | - |
| 1777982201 | 30° C | 72% | 977 hPa | - | 0 m/s | 0 W/m² | - |
| 1777981877 | 29.44° C | 73% | 977 hPa | - | 0 m/s | 0 W/m² | - |
| 1777981554 | 29.44° C | 73% | 976 hPa | - | 0 m/s | 0 W/m² | - |
| 1777981234 | 29.44° C | 74% | 976 hPa | - | 0 m/s | 0 W/m² | - |
| 1777980908 | 28.89° C | 75% | 976 hPa | - | 0 m/s | 0 W/m² | - |
| 1777980588 | 28.89° C | 73% | 976 hPa | - | 0 m/s | 0 W/m² | - |
| 1777980262 | 30° C | 64% | 976 hPa | - | 0 m/s | 0 W/m² | - |
| 1777979940 | 30.56° C | 61% | 976 hPa | - | 0 m/s | 0 W/m² | - |
| 1777979616 | 31.11° C | - | - | - | 0 m/s | - | - |
| 1777979616 | 31.11° C | 57% | 976 hPa | - | 0 m/s | 0 W/m² | - |
| 1777979291 | 32.78° C | 57% | 976 hPa | - | 0 m/s | 0 W/m² | - |
| 1777978978 | 33.89° C | 58% | 976 hPa | - | 0 m/s | 0 W/m² | - |
| 1777978968 | 33.89° C | 58% | 976 hPa | - | 0 m/s | 0 W/m² | - |
| 1777978646 | 33.89° C | 58% | 976 hPa | - | 0 m/s | 0 W/m² | - |
| 1777978324 | - | - | - | - | 0 m/s | - | - |
| 1777978324 | 33.89° C | 57% | 976 hPa | - | 0 m/s | 0 W/m² | - |
| 1777978010 | - | - | - | - | 0 m/s | - | - |
| 1777978000 | 34.44° C | 56% | 976 hPa | - | 0 m/s | 0 W/m² | - |
| 1777977677 | - | - | - | - | 0 m/s | - | - |
* Rain since midnight (hover to see other rain measurements)
** Current wind speed in m/s (hover to see current wind gust speed)